Kill Devil Hills, NC

5:16 PM EST on February 19, 2017 (GMT -0500)
First Flight

Weather History for KFFA - September, 2012

Change the Weather History Date:

Wednesday, September 12, 2012

  Actual Average (KMQI) Record (KMQI)
Temperature  
Mean Temperature 70 °F -  
Max Temperature 74 °F 77 °F 96 °F (1983)
Min Temperature 66 °F 69 °F 51 °F (1976)
Cooling Degree Days 5    
Growing Degree Days 20 (Base 50)    
Moisture  
Dew Point 54 °F    
Average Humidity 57    
Maximum Humidity 71    
Minimum Humidity 49    
Precipitation  
Precipitation 0.00 in - - ()
Sea Level Pressure  
Sea Level Pressure 30.31 in    
Wind  
Wind Speed 4 mph (NE)    
Max Wind Speed 9 mph    
Max Gust Speed -    
Visibility 10 miles    
Events      
Averages and records for this station are not official NWS values.
T = Trace of Precipitation, MM = Missing Value Source: NWS Daily Summary

Daily Weather History Graph

Daily Weather History Graph

Search for Another Location

Airport or City:

Trip Planner

Search our weather history database for the weather conditions in past years. The results will help you decide how hot, cold, wet, or windy it might be!

Date:

Astronomy

Sep. 12, 2012 Rise Set
Actual Time 6:43 AM EDT 7:13 PM EDT
Civil Twilight 6:17 AM EDT 7:39 PM EDT
Nautical Twilight 5:47 AM EDT 8:09 PM EDT
Astronomical Twilight 5:16 AM EDT 8:40 PM EDT
Moon 3:03 AM EDT (9/12) 4:55 PM EDT (9/12)
Length of Visible Light 13h 21m
Length of Day
12h 30m
Waning Crescent, 14% of the Moon is Illuminated
Sep 12
Waning Crescent
Sep 15
New
Sep 22
First Quarter
Sep 29
Full
Oct 8
Last Quarter

Hourly Weather History & Observations

Time (EDT) Temp. Dew Point Humidity Pressure Visibility Wind Dir Wind Speed Gust Speed Precip Events Conditions
12:35 AM 67.5 °F 55.8 °F 66% 30.29 in 10.0 mi Calm Calm - N/A   Scattered Clouds
12:55 AM 67.8 °F 55.9 °F 66% 30.28 in 10.0 mi NE 4.6 mph - N/A   Mostly Cloudy
1:15 AM 67.6 °F 55.6 °F 65% 30.28 in 10.0 mi Calm Calm - N/A   Scattered Clouds
1:35 AM 67.1 °F 54.9 °F 65% 30.29 in 10.0 mi NE 3.5 mph - N/A   Clear
1:55 AM 67.1 °F 52.9 °F 60% 30.28 in 10.0 mi Calm Calm - N/A   Clear
2:15 AM 66.9 °F 51.6 °F 58% 30.28 in 10.0 mi NE 3.5 mph - N/A   Clear
2:35 AM 66.9 °F 51.3 °F 57% 30.28 in 10.0 mi Calm Calm - N/A   Clear
2:55 AM 66.7 °F 51.4 °F 58% 30.28 in 10.0 mi NNE 3.5 mph - N/A   Clear
3:15 AM 66.7 °F 50.9 °F 57% 30.27 in 10.0 mi NNE 3.5 mph - N/A   Clear
3:35 AM 66.7 °F 50.5 °F 56% 30.28 in 10.0 mi Calm Calm - N/A   Clear
3:55 AM 66.7 °F 50.0 °F 55% 30.28 in 10.0 mi NE 3.5 mph - N/A   Clear
4:15 AM 66.7 °F 48.7 °F 52% 30.27 in 10.0 mi NNE 3.5 mph - N/A   Clear
4:35 AM 66.6 °F 48.6 °F 52% 30.27 in 10.0 mi NE 3.5 mph - N/A   Clear
4:55 AM 66.6 °F 48.4 °F 52% 30.27 in 10.0 mi NNE 3.5 mph - N/A   Clear
5:15 AM 66.6 °F 48.4 °F 52% 30.28 in 10.0 mi NNE 3.5 mph - N/A   Clear
5:35 AM 66.6 °F 48.7 °F 53% 30.29 in 10.0 mi NNE 3.5 mph - N/A   Clear
5:55 AM 66.4 °F 49.3 °F 54% 30.29 in 10.0 mi Calm Calm - N/A   Clear
6:15 AM 66.2 °F 49.6 °F 55% 30.29 in 10.0 mi Calm Calm - N/A   Clear
6:35 AM 66.2 °F 50.5 °F 57% 30.30 in 10.0 mi Calm Calm - N/A   Clear
6:55 AM 66.4 °F 51.1 °F 58% 30.30 in 10.0 mi Calm Calm - N/A   Clear
7:15 AM 66.6 °F 51.8 °F 59% 30.31 in 10.0 mi Calm Calm - N/A   Clear
7:35 AM 67.5 °F 53.1 °F 60% 30.31 in 10.0 mi Calm Calm - N/A   Clear
7:55 AM 68.4 °F 54.1 °F 60% 30.31 in 10.0 mi ENE 4.6 mph - N/A   Clear
8:15 AM 69.6 °F 54.3 °F 58% 30.32 in 10.0 mi ENE 3.5 mph - N/A   Clear
8:35 AM 70.3 °F 54.3 °F 57% 30.32 in 10.0 mi NE 6.9 mph - N/A   Clear
8:55 AM 70.7 °F 54.3 °F 56% 30.32 in 10.0 mi NE 4.6 mph - N/A   Clear
9:15 AM 71.8 °F 54.7 °F 55% 30.33 in 10.0 mi ENE 6.9 mph - N/A   Clear
9:35 AM 71.8 °F 54.3 °F 54% 30.33 in 10.0 mi NE 5.8 mph - N/A   Clear
9:55 AM 72.5 °F 54.1 °F 52% 30.33 in 10.0 mi NE 3.5 mph - N/A   Clear
10:15 AM 72.9 °F 55.8 °F 55% 30.34 in 10.0 mi NE 6.9 mph - N/A   Clear
10:35 AM 72.9 °F 55.6 °F 55% 30.34 in 10.0 mi NE 5.8 mph - N/A   Clear
10:55 AM 73.2 °F 55.4 °F 54% 30.35 in 10.0 mi ENE 8.1 mph - N/A   Clear
11:15 AM 73.2 °F 55.8 °F 54% 30.35 in 10.0 mi ENE 8.1 mph - N/A   Clear
11:35 AM 73.4 °F 55.8 °F 54% 30.35 in 10.0 mi ENE 6.9 mph - N/A   Clear
11:55 AM 73.8 °F 55.4 °F 53% 30.34 in 10.0 mi ENE 8.1 mph - N/A   Clear
12:15 PM 73.9 °F 55.6 °F 53% 30.35 in 10.0 mi ENE 6.9 mph - N/A   Clear
12:35 PM 74.1 °F 55.4 °F 52% 30.34 in 10.0 mi ENE 8.1 mph - N/A   Clear
12:55 PM 74.3 °F 56.1 °F 53% 30.34 in 10.0 mi NE 6.9 mph - N/A   Clear
1:15 PM 74.3 °F 55.9 °F 53% 30.34 in 10.0 mi ENE 8.1 mph - N/A   Clear
1:35 PM 74.8 °F 56.3 °F 52% 30.33 in 10.0 mi NE 6.9 mph - N/A   Clear
1:55 PM 74.3 °F 55.8 °F 52% 30.33 in 10.0 mi ENE 8.1 mph - N/A   Clear
2:15 PM 74.5 °F 55.4 °F 51% 30.32 in 10.0 mi NE 8.1 mph - N/A   Clear
2:35 PM 74.3 °F 54.9 °F 51% 30.31 in 10.0 mi ENE 6.9 mph - N/A   Clear
2:55 PM 74.8 °F 54.5 °F 49% 30.31 in 10.0 mi NE 8.1 mph - N/A   Clear
3:15 PM 74.5 °F 54.3 °F 49% 30.30 in 10.0 mi NE 6.9 mph - N/A   Clear
3:35 PM 74.3 °F 54.0 °F 49% 30.30 in 10.0 mi ENE 9.2 mph - N/A   Clear
3:55 PM 74.3 °F 54.1 °F 49% 30.30 in 10.0 mi ENE 8.1 mph - N/A   Clear
4:15 PM 73.9 °F 53.8 °F 49% 30.30 in 10.0 mi ENE 6.9 mph - N/A   Clear
4:35 PM 73.6 °F 54.0 °F 50% 30.30 in 10.0 mi ENE 6.9 mph - N/A   Clear
4:55 PM 73.6 °F 53.6 °F 50% 30.30 in 10.0 mi ENE 4.6 mph - N/A   Clear
5:15 PM 73.2 °F 53.8 °F 50% 30.30 in 10.0 mi ENE 6.9 mph - N/A   Clear
5:55 PM 72.5 °F 54.7 °F 53% 30.30 in 10.0 mi ENE 4.6 mph - N/A   Clear
6:15 PM 72.0 °F 55.0 °F 55% 30.30 in 10.0 mi ENE 4.6 mph - N/A   Clear
6:35 PM 71.2 °F 55.0 °F 56% 30.30 in 10.0 mi ENE 8.1 mph - N/A   Clear
6:55 PM 70.7 °F 55.0 °F 58% 30.30 in 10.0 mi ENE 6.9 mph - N/A   Clear
7:15 PM 70.0 °F 55.4 °F 60% 30.30 in 10.0 mi ENE 5.8 mph - N/A   Clear
7:35 PM 69.6 °F 54.9 °F 59% 30.30 in 10.0 mi ENE 5.8 mph - N/A   Clear
7:55 PM 69.3 °F 55.2 °F 61% 30.30 in 10.0 mi East 5.8 mph - N/A   Clear
8:15 PM 69.3 °F 55.6 °F 62% 30.31 in 10.0 mi ENE 5.8 mph - N/A   Clear
8:35 PM 69.3 °F 55.8 °F 62% 30.31 in 10.0 mi ENE 4.6 mph - N/A   Clear
8:55 PM 69.1 °F 56.3 °F 64% 30.31 in 10.0 mi ENE 4.6 mph - N/A   Clear
9:15 PM 69.1 °F 56.3 °F 64% 30.31 in 10.0 mi ENE 3.5 mph - N/A   Clear
9:35 PM 68.9 °F 56.5 °F 65% 30.31 in 10.0 mi ENE 3.5 mph - N/A   Clear
9:55 PM 68.9 °F 56.8 °F 65% 30.31 in 10.0 mi ENE 3.5 mph - N/A   Clear
10:15 PM 68.9 °F 56.5 °F 65% 30.32 in 10.0 mi ENE 3.5 mph - N/A   Clear
10:55 PM 69.1 °F 57.7 °F 67% 30.31 in 10.0 mi ENE 3.5 mph - N/A   Clear
11:15 PM 69.1 °F 58.3 °F 68% 30.31 in 10.0 mi ENE 3.5 mph - N/A   Clear
11:35 PM 69.1 °F 59.0 °F 70% 30.30 in 10.0 mi ENE 3.5 mph - N/A   Clear
11:55 PM 69.4 °F 59.7 °F 71% 30.30 in 10.0 mi Calm Calm - N/A   Clear